Wind_Speed
9 9 9 10 9 9 8 8 7 6 5 5 4 3 2 3 3 4 6 6 6 7 8 8 9 10 10 11 11 11 10 10 10 10 10 10 11 11 12 10 11 12 13
9 9 9 9 9 9 9 8 7 7 6 5 5 4 3 3 3 4 5 6 7 7 8 8 9 10 11 11 11 11 11 10 10 11 11 11 11 11 12 12 12 12 13
8 9 9 10 10 9 8 8 7 7 7 7 6 6 5 4 3 4 4 5 7 7 8 8 9 10 10 11 11 11 11 12 12 12 12 12 12 12 12 13 13 13 13
8 9 9 10 10 10 9 8 7 7 7 7 7 7 6 5 5 4 4 5 6 7 8 8 8 9 10 11 11 12 11 12 12 13 13 13 13 13 13 14 14 14 14
8 8 9 9 10 10 9 8 8 7 7 7 8 8 7 6 6 5 6 6 7 7 8 8 9 10 10 10 11 12 12 12 13 13 13 13 13 13 13 14 15 15 16
7 8 8 9 9 9 9 8 8 8 8 8 8 8 8 7 7 6 7 7 7 7 8 8 9 9 10 10 10 10 10 10 11 11 11 11 12 13 14 14 15 15 16
7 8 8 8 8 8 9 9 8 8 8 8 8 8 8 8 7 7 7 8 8 8 8 8 9 9 9 10 10 9 9 10 10 10 10 10 11 12 13 14 15 16 17
7 7 8 8 8 8 8 8 8 8 8 8 8 8 8 8 8 9 9 9 8 8 8 8 9 9 10 10 11 10 10 11 11 11 12 12 11 11 11 13 13 14 16
7 7 8 8 8 8 8 8 8 8 8 8 8 9 9 9 10 10 10 9 9 9 9 9 9 9 10 10 11 11 11 11 12 11 12 12 13 13 13 13 13 14 15
8 8 8 8 8 8 7 8 8 8 9 9 9 9 10 10 11 11 11 10 10 10 10 10 11 11 11 11 12 12 13 13 13 14 13 13 14 14 15 15 15 15 16
8 8 8 8 8 8 8 8 8 8 9 9 10 10 10 11 11 11 11 11 11 11 11 11 12 12 12 12 13 13 14 14 14 15 14 15 15 16 16 16 17 17 18
9 9 9 9 9 8 8 8 8 9 10 10 10 11 11 12 12 12 12 11 11 12 12 12 12 12 13 13 13 14 14 15 15 15 16 16 16 17 17 18 19 19 19
9 9 9 9 9 9 9 9 9 10 10 11 11 12 12 13 13 13 13 13 13 13 12 12 13 13 14 13 13 14 14 15 16 17 17 18 18 18 19 19 20 20 21
11 11 11 10 10 10 10 10 10 11 11 11 12 12 13 14 14 14 14 14 14 13 13 13 13 13 13 13 13 14 15 16 17 18 19 19 20 20 21 21 22 22 23
12 12 12 11 11 11 11 11 11 12 12 12 12 13 13 14 14 14 14 14 14 14 13 14 14 14 13 14 14 15 15 17 17 18 19 20 20 20 21 22 23 24 24
13 13 13 12 12 12 12 12 12 13 13 13 14 14 14 14 15 15 15 15 15 15 15 15 15 15 15 15 16 16 17 18 19 20 21 22 22 23 23 23 24 25 26
15 14 14 14 13 13 13 14 14 15 15 15 15 15 15 15 16 16 16 16 16 16 16 16 17 17 17 17 18 19 19 19 20 21 22 22 23 24 25 25 26 27 27
16 15 15 15 15 15 15 16 16 16 16 16 16 16 16 17 17 17 17 17 17 18 18 18 18 19 19 19 20 20 21 22 22 23 23 24 24 25 25 26 27 27 28
17 17 16 17 17 17 17 17 17 17 18 18 18 18 18 18 18 19 19 19 19 20 20 20 21 21 22 22 23 23 23 24 24 25 25 25 26 26 27 27 27 28 29
18 18 18 18 18 18 18 19 19 19 19 19 20 20 20 20 20 21 21 21 21 22 22 23 23 24 24 25 25 26 26 27 27 27 27 27 27 28 29 29 30 30 31
19 19 19 19 19 20 19 19 20 20 20 21 21 21 21 22 22 22 23 23 23 24 25 25 26 27 27 28 28 29 29 29 29 29 29 29 29 30 30 31 32 32 33
19 20 20 20 21 21 21 21 22 22 22 22 22 22 22 23 24 24 25 25 26 26 27 28 28 29 30 30 31 31 31 31 31 31 31 31 32 32 32 33 34 34 35
21 21 21 21 22 23 23 23 23 23 23 24 24 24 24 25 26 27 28 28 28 29 30 30 31 31 32 33 33 33 33 33 32 33 33 33 34 34 34 35 36 36 37
21 22 22 23 23 24 24 24 24 24 25 25 26 26 26 27 28 28 29 30 31 31 32 33 34 34 34 34 35 35 34 34 34 34 35 35 35 36 36 36 37 37 38
22 23 24 24 24 24 25 25 26 26 27 27 28 28 29 29 30 30 31 32 33 34 34 35 36 36 36 36 36 36 36 36 36 37 38 38 38 38 38 38 39 39 39
23 24 24 24 25 25 26 27 28 28 29 30 30 30 31 32 33 33 34 35 35 36 36 37 37 37 37 38 38 38 39 39 39 39 39 40 40 40 39 39 40 41 41
Wind_Direction
7 9 7 6 6 6 5 3 5 9 13 11 7 354 322 297 283 267 264 263 261 261 263 260 257 256 255 253 255 260 263 267 269 269 268 263 256 252 250 242 236 231 232
5 6 9 7 6 6 8 11 11 13 16 15 13 8 357 335 307 285 277 272 268 268 267 265 262 261 260 260 260 263 264 267 272 272 270 266 259 253 251 246 241 235 233
5 8 12 10 8 7 9 10 15 20 22 22 20 15 10 355 334 307 291 286 279 276 274 269 266 266 266 265 265 267 266 267 271 274 273 267 260 254 249 244 241 236 234
4 5 7 7 8 9 11 13 19 23 21 19 16 11 7 1 349 332 318 306 294 288 282 276 274 273 271 269 270 272 271 270 274 275 272 268 260 251 244 240 239 238 238
359 2 3 5 7 10 13 14 19 18 15 13 10 7 3 356 344 331 323 315 305 295 288 282 279 277 278 278 277 277 274 273 275 276 273 264 259 254 249 244 241 240 240
354 356 356 360 4 7 11 11 12 12 10 7 3 2 359 351 343 332 326 319 312 305 298 288 283 280 281 282 282 285 277 279 278 278 274 263 257 253 253 250 246 243 242
349 350 351 353 356 360 4 7 8 8 7 4 2 1 359 356 350 343 337 330 321 312 305 295 287 284 283 282 282 282 279 282 287 278 273 266 261 256 255 252 247 245 243
339 344 347 348 349 352 355 359 4 5 4 1 358 357 355 355 355 352 345 338 329 319 312 302 294 286 283 282 282 281 279 280 288 280 275 268 264 262 260 258 256 253 249
328 334 337 339 342 344 345 349 352 357 355 354 353 352 350 348 346 344 342 339 332 327 321 313 307 297 288 285 284 283 279 279 280 282 276 268 265 263 264 263 262 261 259
322 324 328 332 336 337 337 340 342 343 345 346 345 345 344 343 343 341 338 335 329 325 321 314 308 303 295 290 286 282 278 278 279 279 275 269 266 265 263 263 263 263 263
316 317 318 323 327 329 329 331 333 334 334 334 336 338 339 338 339 338 334 330 324 319 318 314 308 304 299 295 291 286 281 278 278 277 273 270 267 266 263 261 262 262 262
312 311 311 314 317 318 320 321 322 324 325 326 328 330 330 331 331 331 329 327 321 317 314 312 308 306 302 298 293 289 284 281 279 277 275 273 270 268 264 263 263 262 262
305 306 307 311 314 313 313 314 313 316 319 321 323 324 324 324 323 322 322 322 318 315 311 310 307 306 305 300 297 293 287 284 282 279 276 274 272 270 269 265 265 265 264
299 300 303 305 308 307 308 309 308 309 313 316 318 319 319 319 319 318 318 318 315 314 311 310 309 308 306 303 300 297 292 288 285 281 277 273 272 272 269 266 267 267 267
294 296 298 301 301 303 304 306 307 306 308 311 313 314 316 317 317 316 316 317 316 313 312 311 309 307 305 303 302 298 295 291 288 286 281 276 273 273 270 268 268 268 267
289 292 293 296 297 300 301 302 302 302 304 306 308 310 313 315 317 316 315 316 316 315 314 314 312 308 305 305 304 302 299 295 291 288 285 280 276 274 273 270 269 266 266
287 288 288 290 292 295 296 298 299 298 300 302 304 306 309 311 313 314 313 313 313 312 312 312 312 310 308 305 304 303 301 298 294 291 288 283 279 277 274 272 269 267 266
286 285 285 286 289 291 294 295 297 297 298 299 302 304 306 308 310 310 310 310 310 310 310 309 308 308 307 306 305 303 301 299 297 294 289 284 280 278 276 274 273 271 269
285 284 284 286 288 291 293 294 295 295 295 296 298 300 302 304 306 307 307 307 307 306 307 306 305 305 306 305 304 303 301 299 297 294 290 286 283 281 279 277 275 273 271
284 284 285 286 288 290 292 292 293 293 293 294 295 297 298 300 301 303 304 304 305 305 304 303 303 302 303 303 303 302 300 299 297 294 291 287 285 283 281 279 277 275 273
283 284 285 286 288 290 291 292 293 293 293 293 294 295 297 299 300 301 302 303 303 303 303 302 301 300 300 301 301 300 299 297 295 293 291 289 287 286 284 281 279 277 274
286 285 285 285 286 288 290 291 292 293 292 292 293 294 296 297 298 299 300 301 302 302 302 302 302 302 300 299 300 299 297 296 294 292 290 288 286 284 283 281 279 277 275
286 286 286 286 287 288 289 290 291 292 292 292 293 294 295 296 297 298 299 299 300 301 301 301 302 302 301 300 300 299 298 296 294 293 290 289 286 285 283 281 279 277 275
286 285 285 286 287 288 288 290 290 291 292 292 292 292 294 296 296 297 298 299 300 301 301 301 301 301 301 301 300 299 298 296 294 292 290 289 286 285 283 281 279 277 275
287 287 287 287 288 289 290 291 291 291 292 292 292 292 294 295 296 297 298 299 299 299 300 300 301 301 300 299 298 298 297 297 296 293 291 289 286 285 283 281 279 277 275
287 288 289 289 288 289 290 290 291 291 292 292 293 292 293 295 296 296 297 298 298 299 298 299 299 299 299 298 298 297 297 296 296 294 292 290 287 285 283 281 279 278 276
Height
5891 5889 5888 5886 5884 5882 5881 5879 5878 5877 5876 5875 5875 5874 5874 5875 5875 5875 5875 5876 5876 5877 5877 5878 5879 5879 5880 5881 5882 5882 5883 5883 5884 5884 5884 5885 5885 5885 5886 5886 5887 5888 5891
5891 5890 5888 5886 5884 5883 5881 5880 5878 5877 5876 5876 5875 5874 5874 5874 5874 5874 5874 5875 5875 5876 5876 5876 5877 5877 5878 5879 5879 5880 5881 5881 5881 5881 5882 5882 5883 5883 5884 5885 5886 5887 5889
5891 5890 5888 5887 5885 5883 5882 5880 5879 5878 5877 5876 5875 5875 5874 5873 5873 5873 5874 5874 5874 5874 5874 5875 5875 5876 5876 5877 5877 5878 5878 5878 5879 5879 5879 5879 5880 5881 5881 5882 5884 5886 5887
5891 5890 5889 5887 5885 5884 5882 5881 5880 5878 5877 5877 5876 5875 5874 5874 5873 5873 5873 5873 5873 5873 5873 5873 5874 5874 5874 5875 5875 5875 5875 5876 5876 5875 5875 5876 5877 5878 5879 5880 5882 5883 5885
5891 5890 5889 5887 5886 5884 5883 5882 5880 5879 5878 5877 5876 5875 5874 5874 5873 5873 5872 5872 5871 5871 5871 5872 5872 5872 5873 5872 5872 5871 5871 5872 5872 5871 5871 5871 5873 5875 5876 5878 5879 5881 5882
5891 5890 5889 5888 5886 5885 5884 5882 5881 5879 5878 5877 5876 5875 5874 5873 5873 5872 5871 5871 5870 5870 5870 5870 5870 5870 5870 5870 5870 5868 5868 5869 5870 5868 5867 5868 5870 5872 5874 5875 5876 5878 5879
5891 5890 5889 5887 5886 5885 5884 5883 5881 5880 5879 5877 5876 5875 5874 5873 5872 5871 5871 5870 5869 5868 5868 5868 5868 5868 5868 5868 5868 5868 5867 5868 5868 5867 5866 5867 5868 5870 5871 5872 5873 5874 5876
5890 5890 5888 5887 5886 5885 5884 5883 5882 5880 5879 5878 5877 5876 5875 5874 5872 5871 5870 5869 5868 5867 5866 5866 5866 5866 5866 5866 5866 5866 5866 5866 5866 5866 5866 5866 5866 5867 5868 5869 5870 5871 5873
5890 5889 5888 5887 5886 5885 5884 5883 5881 5880 5879 5878 5877 5876 5875 5873 5872 5871 5869 5868 5867 5866 5865 5864 5864 5863 5863 5863 5863 5863 5863 5864 5863 5864 5864 5864 5864 5865 5865 5866 5867 5869 5870
5889 5888 5887 5886 5885 5884 5883 5882 5881 5880 5879 5878 5877 5875 5874 5873 5871 5870 5868 5866 5865 5864 5863 5862 5861 5861 5860 5860 5860 5860 5860 5860 5860 5860 5861 5861 5861 5862 5862 5863 5864 5865 5866
5888 5887 5886 5885 5884 5883 5882 5881 5880 5879 5878 5877 5876 5874 5873 5872 5870 5869 5867 5865 5864 5862 5861 5860 5859 5858 5857 5857 5856 5856 5857 5857 5857 5857 5857 5857 5858 5858 5859 5860 5860 5861 5862
5886 5885 5885 5884 5883 5882 5881 5880 5879 5878 5877 5876 5875 5873 5872 5870 5869 5867 5865 5863 5862 5860 5858 5857 5856 5855 5853 5852 5852 5852 5852 5852 5852 5853 5853 5853 5853 5854 5855 5855 5856 5857 5858
5885 5884 5883 5882 5881 5880 5879 5878 5877 5877 5876 5874 5873 5871 5870 5868 5867 5865 5863 5861 5859 5858 5856 5855 5853 5851 5850 5849 5848 5847 5848 5848 5848 5848 5848 5848 5849 5849 5850 5851 5851 5852 5853
5882 5882 5881 5880 5879 5878 5877 5877 5876 5875 5874 5872 5871 5870 5868 5866 5864 5863 5861 5859 5857 5855 5853 5852 5850 5848 5847 5846 5845 5844 5843 5843 5843 5843 5843 5844 5844 5844 5844 5845 5846 5846 5847
5880 5879 5878 5878 5877 5876 5875 5875 5874 5872 5871 5870 5869 5867 5866 5864 5862 5860 5858 5856 5855 5853 5851 5849 5847 5845 5844 5843 5842 5840 5839 5839 5838 5838 5838 5838 5838 5838 5837 5838 5839 5840 5841
5877 5876 5876 5875 5874 5873 5873 5872 5871 5870 5869 5867 5866 5864 5863 5861 5859 5857 5855 5853 5851 5850 5848 5846 5844 5843 5841 5839 5838 5836 5835 5834 5833 5832 5832 5831 5831 5831 5831 5832 5832 5833 5833
5874 5873 5872 5872 5871 5870 5870 5869 5868 5867 5866 5864 5863 5861 5860 5858 5856 5854 5852 5850 5849 5847 5845 5843 5841 5839 5837 5836 5834 5832 5830 5829 5827 5826 5825 5824 5823 5823 5823 5824 5824 5825 5826
5870 5869 5869 5868 5868 5867 5866 5865 5864 5863 5862 5861 5859 5858 5856 5855 5853 5851 5849 5847 5845 5843 5841 5839 5837 5835 5833 5831 5829 5827 5825 5823 5821 5819 5817 5816 5816 5815 5815 5815 5816 5816 5817
5866 5865 5865 5864 5864 5863 5862 5861 5860 5859 5858 5857 5855 5854 5852 5851 5849 5847 5845 5843 5841 5839 5837 5835 5833 5830 5828 5826 5823 5821 5819 5817 5814 5812 5810 5809 5808 5808 5807 5807 5807 5807 5808
5862 5861 5861 5860 5859 5858 5857 5857 5856 5855 5853 5852 5851 5849 5848 5846 5844 5842 5840 5838 5836 5834 5832 5829 5827 5825 5822 5820 5817 5815 5812 5810 5807 5805 5803 5801 5800 5799 5799 5799 5798 5798 5798
5857 5857 5856 5855 5855 5854 5853 5852 5851 5850 5848 5847 5846 5844 5842 5841 5839 5837 5835 5833 5831 5828 5826 5823 5821 5818 5816 5813 5810 5807 5804 5802 5799 5797 5795 5794 5792 5791 5790 5789 5788 5788 5788
5852 5852 5851 5850 5850 5848 5847 5846 5845 5844 5843 5841 5840 5838 5837 5835 5833 5831 5829 5826 5824 5822 5819 5816 5814 5811 5808 5805 5802 5799 5796 5794 5792 5789 5786 5785 5783 5782 5781 5780 5778 5777 5777
5847 5846 5846 5845 5844 5843 5842 5841 5839 5838 5837 5835 5834 5832 5831 5829 5827 5824 5822 5820 5817 5814 5811 5809 5806 5802 5799 5796 5793 5790 5787 5784 5782 5779 5777 5775 5773 5771 5770 5768 5767 5766 5765
5842 5841 5840 5839 5838 5837 5836 5835 5833 5832 5831 5829 5827 5826 5824 5822 5819 5817 5815 5812 5809 5806 5803 5800 5797 5793 5789 5786 5782 5779 5777 5774 5772 5769 5766 5764 5762 5760 5758 5756 5755 5753 5753
5836 5835 5834 5833 5832 5831 5829 5828 5827 5825 5824 5822 5820 5818 5816 5814 5811 5809 5807 5804 5801 5798 5794 5790 5787 5783 5779 5775 5772 5769 5766 5763 5761 5759 5755 5752 5750 5748 5746 5744 5742 5741 5740
5830 5829 5828 5827 5826 5824 5823 5821 5819 5818 5816 5815 5813 5810 5808 5805 5803 5800 5797 5794 5791 5788 5784 5781 5777 5773 5769 5765 5761 5758 5755 5751 5748 5746 5743 5739 5737 5735 5734 5732 5730 5728 5727